Time,TemperatureF,DewpointF,PressureIn,WindDirection,WindDirectionDegrees,WindSpeedMPH,WindSpeedGustMPH,Humidity,HourlyPrecipIn,Conditions,Clouds,dailyrainin,SoftwareType,DateUTC
2013-05-01 00:03:00,49.1,44.8,30.15,NNE,23,0.7,4.0,85,0.00,,,0.00,WUHU216HW,2013-04-30 22:03:00,
2013-05-01 00:08:00,49.1,44.8,30.15,NE,45,2.5,4.0,85,0.00,,,0.00,WUHU216HW,2013-04-30 22:08:00,
2013-05-01 00:13:00,49.0,44.7,30.15,NNE,23,1.6,5.4,85,0.00,,,0.00,WUHU216HW,2013-04-30 22:13:00,
2013-05-01 00:18:00,49.0,44.7,30.16,NNE,23,0.9,5.4,85,0.00,,,0.00,WUHU216HW,2013-04-30 22:18:00,
2013-05-01 00:23:00,49.0,44.7,30.16,NNE,23,1.6,3.4,85,0.00,,,0.00,WUHU216HW,2013-04-30 22:23:00,
2013-05-01 00:28:00,49.0,44.7,30.16,North,0,0.7,4.0,85,0.00,,,0.00,WUHU216HW,2013-04-30 22:28:00,
2013-05-01 00:33:00,49.0,44.7,30.16,North,0,1.1,4.0,85,0.00,,,0.00,WUHU216HW,2013-04-30 22:33:00,
2013-05-01 00:38:00,49.0,44.7,30.16,NE,45,3.6,3.8,85,0.00,,,0.00,WUHU216HW,2013-04-30 22:38:00,
2013-05-01 00:43:00,49.0,44.7,30.16,North,0,0.4,3.8,85,0.00,,,0.00,WUHU216HW,2013-04-30 22:43:00,
2013-05-01 00:48:00,49.1,44.8,30.17,North,0,0.2,3.6,85,0.00,,,0.00,WUHU216HW,2013-04-30 22:48:00,
2013-05-01 00:53:00,49.3,44.9,30.17,NNE,23,0.4,2.2,85,0.00,,,0.00,WUHU216HW,2013-04-30 22:53:00,
2013-05-01 00:58:00,49.3,44.9,30.17,NNE,23,1.8,2.2,85,0.00,,,0.00,WUHU216HW,2013-04-30 22:58:00,
2013-05-01 01:03:00,49.3,44.7,30.17,North,0,0.0,2.2,84,0.00,,,0.00,WUHU216HW,2013-04-30 23:03:00,
2013-05-01 01:08:00,49.3,44.7,30.17,North,0,2.0,2.2,84,0.00,,,0.00,WUHU216HW,2013-04-30 23:08:00,
2013-05-01 01:13:00,49.1,44.8,30.17,NNE,23,2.5,4.3,85,0.00,,,0.00,WUHU216HW,2013-04-30 23:13:00,
2013-05-01 01:18:00,49.1,44.8,30.17,NNE,23,2.0,4.3,85,0.00,,,0.00,WUHU216HW,2013-04-30 23:18:00,
2013-05-01 01:23:00,49.0,44.7,30.17,NNE,23,2.2,7.2,85,0.00,,,0.00,WUHU216HW,2013-04-30 23:23:00,
2013-05-01 01:28:00,49.0,44.3,30.17,NNE,23,1.1,7.2,84,0.00,,,0.00,WUHU216HW,2013-04-30 23:28:00,
2013-05-01 01:33:00,49.0,44.7,30.17,NNE,23,1.1,3.6,85,0.00,,,0.00,WUHU216HW,2013-04-30 23:33:00,
2013-05-01 01:38:00,49.0,44.7,30.17,NNE,23,3.4,3.6,85,0.00,,,0.00,WUHU216HW,2013-04-30 23:38:00,
2013-05-01 01:43:00,49.0,44.3,30.17,NE,45,0.4,3.4,84,0.00,,,0.00,WUHU216HW,2013-04-30 23:43:00,
2013-05-01 01:48:00,49.0,44.3,30.17,NNE,23,0.4,2.5,84,0.00,,,0.00,WUHU216HW,2013-04-30 23:48:00,
2013-05-01 01:53:00,49.0,44.3,30.18,NNE,23,1.6,2.5,84,0.00,,,0.00,WUHU216HW,2013-04-30 23:53:00,
2013-05-01 01:58:00,49.0,44.3,30.18,NNE,23,1.1,2.5,84,0.00,,,0.00,WUHU216HW,2013-04-30 23:58:00,
2013-05-01 02:03:00,49.0,44.3,30.18,NE,45,0.2,2.5,84,0.00,,,0.00,WUHU216HW,2013-05-01 00:03:00,
2013-05-01 02:08:00,49.1,44.5,30.18,NNE,23,0.0,1.3,84,0.00,,,0.00,WUHU216HW,2013-05-01 00:08:00,
2013-05-01 02:13:00,49.1,44.5,30.18,NNE,23,1.8,1.8,84,0.00,,,0.00,WUHU216HW,2013-05-01 00:13:00,
2013-05-01 02:18:00,49.1,44.5,30.17,North,0,0.7,3.1,84,0.00,,,0.00,WUHU216HW,2013-05-01 00:18:00,
2013-05-01 02:23:00,49.1,44.5,30.18,NNE,23,1.3,3.1,84,0.00,,,0.00,WUHU216HW,2013-05-01 00:23:00,
2013-05-01 02:28:00,49.0,44.3,30.18,NNE,23,1.3,2.7,84,0.00,,,0.00,WUHU216HW,2013-05-01 00:28:00,
2013-05-01 02:33:00,49.0,44.3,30.18,NNE,23,1.1,2.2,84,0.00,,,0.00,WUHU216HW,2013-05-01 00:33:00,
2013-05-01 02:38:00,49.0,44.3,30.18,North,0,0.7,2.0,84,0.00,,,0.00,WUHU216HW,2013-05-01 00:38:00,
2013-05-01 02:43:00,49.0,44.7,30.18,NE,45,1.6,3.1,85,0.00,,,0.00,WUHU216HW,2013-05-01 00:43:00,
2013-05-01 02:48:00,49.0,44.7,30.18,NNE,23,0.9,3.6,85,0.00,,,0.00,WUHU216HW,2013-05-01 00:48:00,
2013-05-01 02:53:00,49.0,44.7,30.18,ENE,68,1.6,4.0,85,0.00,,,0.00,WUHU216HW,2013-05-01 00:53:00,
2013-05-01 02:58:00,48.8,44.5,30.18,NNE,23,3.8,4.0,85,0.00,,,0.00,WUHU216HW,2013-05-01 00:58:00,
2013-05-01 03:03:00,48.6,44.3,30.18,NNE,23,0.9,4.3,85,0.00,,,0.00,WUHU216HW,2013-05-01 01:03:00,
2013-05-01 03:08:00,48.6,44.6,30.18,NNE,23,1.6,4.3,86,0.00,,,0.00,WUHU216HW,2013-05-01 01:08:00,
2013-05-01 03:13:00,48.6,44.6,30.18,NNE,23,1.6,3.6,86,0.00,,,0.00,WUHU216HW,2013-05-01 01:13:00,
2013-05-01 03:18:00,48.6,44.3,30.18,NNE,23,2.5,3.4,85,0.00,,,0.00,WUHU216HW,2013-05-01 01:18:00,
2013-05-01 03:23:00,48.6,44.3,30.18,NNE,23,3.4,3.4,85,0.00,,,0.00,WUHU216HW,2013-05-01 01:23:00,
2013-05-01 03:28:00,48.6,44.6,30.18,NNE,23,1.3,3.4,86,0.00,,,0.00,WUHU216HW,2013-05-01 01:28:00,
2013-05-01 03:33:00,48.4,44.4,30.18,North,0,1.8,3.4,86,0.00,,,0.00,WUHU216HW,2013-05-01 01:33:00,
2013-05-01 03:38:00,48.2,44.3,30.18,NE,45,1.1,3.4,86,0.00,,,0.00,WUHU216HW,2013-05-01 01:38:00,
2013-05-01 03:43:00,48.2,44.6,30.18,NNE,23,1.8,4.0,87,0.00,,,0.00,WUHU216HW,2013-05-01 01:43:00,
2013-05-01 03:48:00,48.2,44.6,30.18,NNE,23,2.5,4.0,87,0.00,,,0.00,WUHU216HW,2013-05-01 01:48:00,
2013-05-01 03:53:00,48.1,44.4,30.18,NNE,23,1.8,4.0,87,0.00,,,0.00,WUHU216HW,2013-05-01 01:53:00,
2013-05-01 03:58:00,47.9,44.2,30.18,NNE,23,1.6,4.0,87,0.00,,,0.00,WUHU216HW,2013-05-01 01:58:00,
2013-05-01 04:03:00,47.9,44.2,30.19,NNE,23,0.9,2.5,87,0.00,,,0.00,WUHU216HW,2013-05-01 02:03:00,
2013-05-01 04:08:00,47.9,44.2,30.18,NNE,23,1.1,3.8,87,0.00,,,0.00,WUHU216HW,2013-05-01 02:08:00,
2013-05-01 04:13:00,47.9,44.2,30.18,NNE,23,0.4,3.8,87,0.00,,,0.00,WUHU216HW,2013-05-01 02:13:00,
2013-05-01 04:18:00,47.9,44.2,30.18,NNE,23,1.1,2.5,87,0.00,,,0.00,WUHU216HW,2013-05-01 02:18:00,
2013-05-01 04:23:00,47.9,44.2,30.18,NE,45,1.6,2.5,87,0.00,,,0.00,WUHU216HW,2013-05-01 02:23:00,
2013-05-01 04:28:00,47.9,44.6,30.18,NE,45,2.9,3.4,88,0.00,,,0.00,WUHU216HW,2013-05-01 02:28:00,
2013-05-01 04:33:00,47.7,44.4,30.18,NNE,23,1.6,3.4,88,0.00,,,0.00,WUHU216HW,2013-05-01 02:33:00,
2013-05-01 04:38:00,47.7,44.4,30.18,NE,45,2.5,3.6,88,0.00,,,0.00,WUHU216HW,2013-05-01 02:38:00,
2013-05-01 04:43:00,47.5,44.2,30.18,NNE,23,0.9,3.6,88,0.00,,,0.00,WUHU216HW,2013-05-01 02:43:00,
2013-05-01 04:48:00,47.5,44.2,30.19,NNE,23,1.8,2.5,88,0.00,,,0.00,WUHU216HW,2013-05-01 02:48:00,
2013-05-01 04:53:00,47.5,44.2,30.19,NNE,23,0.4,2.0,88,0.00,,,0.00,WUHU216HW,2013-05-01 02:53:00,
2013-05-01 04:58:00,47.7,44.4,30.19,North,0,0.4,2.0,88,0.00,,,0.00,WUHU216HW,2013-05-01 02:58:00,
2013-05-01 05:03:00,47.7,44.4,30.19,NE,45,1.1,2.5,88,0.00,,,0.00,WUHU216HW,2013-05-01 03:03:00,
2013-05-01 05:08:00,47.7,44.4,30.19,NNE,23,1.1,2.5,88,0.00,,,0.00,WUHU216HW,2013-05-01 03:08:00,
2013-05-01 05:13:00,47.7,44.4,30.19,ESE,113,0.0,2.5,88,0.00,,,0.00,WUHU216HW,2013-05-01 03:13:00,
2013-05-01 05:18:00,47.9,44.6,30.20,ENE,68,0.0,1.1,88,0.00,,,0.00,WUHU216HW,2013-05-01 03:18:00,
2013-05-01 05:23:00,47.9,44.6,30.20,NNE,23,1.3,1.6,88,0.00,,,0.00,WUHU216HW,2013-05-01 03:23:00,
2013-05-01 05:28:00,47.9,44.6,30.19,NNE,23,1.6,2.9,88,0.00,,,0.00,WUHU216HW,2013-05-01 03:28:00,
2013-05-01 05:33:00,47.9,44.6,30.20,NE,45,1.3,2.9,88,0.00,,,0.00,WUHU216HW,2013-05-01 03:33:00,
2013-05-01 05:38:00,47.7,44.4,30.20,NE,45,0.9,3.4,88,0.00,,,0.00,WUHU216HW,2013-05-01 03:38:00,
2013-05-01 05:43:00,47.7,44.4,30.20,NNE,23,1.1,3.4,88,0.00,,,0.00,WUHU216HW,2013-05-01 03:43:00,
2013-05-01 05:48:00,47.7,44.4,30.20,NNE,23,0.9,2.5,88,0.00,,,0.00,WUHU216HW,2013-05-01 03:48:00,
2013-05-01 05:53:00,47.7,44.4,30.20,NNE,23,0.0,2.5,88,0.00,,,0.00,WUHU216HW,2013-05-01 03:53:00,
2013-05-01 05:58:00,47.7,44.4,30.20,NE,45,1.1,2.0,88,0.00,,,0.00,WUHU216HW,2013-05-01 03:58:00,
2013-05-01 06:01:00,47.7,44.4,30.20,NNE,23,1.8,2.0,88,0.00,,,0.00,WUHU216HW,2013-05-01 04:01:00,
2013-05-01 06:06:00,47.7,44.4,30.20,NNE,23,1.1,2.0,88,0.00,,,0.00,WUHU216HW,2013-05-01 04:06:00,
2013-05-01 06:11:00,47.7,44.4,30.20,NNE,23,2.7,2.7,88,0.00,,,0.00,WUHU216HW,2013-05-01 04:11:00,
2013-05-01 06:16:00,47.7,44.4,30.20,North,0,2.7,2.9,88,0.00,,,0.00,WUHU216HW,2013-05-01 04:16:00,
2013-05-01 06:21:00,47.7,44.4,30.20,North,0,2.0,2.9,88,0.00,,,0.00,WUHU216HW,2013-05-01 04:21:00,
2013-05-01 06:26:00,47.7,44.4,30.21,NNE,23,1.1,2.7,88,0.00,,,0.00,WUHU216HW,2013-05-01 04:26:00,
2013-05-01 06:31:00,47.7,44.4,30.21,NNE,23,0.4,2.5,88,0.00,,,0.00,WUHU216HW,2013-05-01 04:31:00,
2013-05-01 06:36:00,47.7,44.4,30.21,NE,45,1.3,2.0,88,0.00,,,0.00,WUHU216HW,2013-05-01 04:36:00,
2013-05-01 06:41:00,47.7,44.4,30.21,NNE,23,0.4,2.7,88,0.00,,,0.00,WUHU216HW,2013-05-01 04:41:00,
2013-05-01 06:46:00,47.7,44.4,30.21,NNE,23,1.1,2.7,88,0.00,,,0.00,WUHU216HW,2013-05-01 04:46:00,
2013-05-01 06:51:00,47.7,44.4,30.21,NNE,23,1.8,2.0,88,0.00,,,0.00,WUHU216HW,2013-05-01 04:51:00,
2013-05-01 06:56:00,47.7,44.4,30.20,NE,45,2.2,2.5,88,0.00,,,0.00,WUHU216HW,2013-05-01 04:56:00,
2013-05-01 07:01:00,47.7,44.6,30.21,NNE,23,2.5,3.6,89,0.00,,,0.00,WUHU216HW,2013-05-01 05:01:00,
2013-05-01 07:06:00,47.7,44.6,30.21,NE,45,1.8,3.8,89,0.00,,,0.00,WUHU216HW,2013-05-01 05:06:00,
2013-05-01 07:11:00,47.5,44.5,30.21,NNE,23,1.8,3.8,89,0.00,,,0.00,WUHU216HW,2013-05-01 05:11:00,
2013-05-01 07:16:00,47.7,44.4,30.21,NE,45,1.3,2.5,88,0.00,,,0.00,WUHU216HW,2013-05-01 05:16:00,
2013-05-01 07:21:00,47.7,44.6,30.21,ENE,68,0.9,2.5,89,0.00,,,0.00,WUHU216HW,2013-05-01 05:21:00,
2013-05-01 07:26:00,47.7,44.6,30.21,NNE,23,1.8,3.1,89,0.00,,,0.00,WUHU216HW,2013-05-01 05:26:00,
2013-05-01 07:31:00,47.7,44.6,30.21,NNE,23,0.4,3.1,89,0.00,,,0.00,WUHU216HW,2013-05-01 05:31:00,
2013-05-01 07:36:00,47.7,44.6,30.21,NE,45,0.4,1.8,89,0.00,,,0.00,WUHU216HW,2013-05-01 05:36:00,
2013-05-01 07:41:00,47.9,44.8,30.21,NNE,23,0.9,2.0,89,0.00,,,0.00,WUHU216HW,2013-05-01 05:41:00,
2013-05-01 07:46:00,47.9,44.8,30.21,NNE,23,0.4,2.0,89,0.00,,,0.00,WUHU216HW,2013-05-01 05:46:00,
2013-05-01 07:51:00,47.9,44.6,30.22,NNE,23,0.9,1.6,88,0.00,,,0.00,WUHU216HW,2013-05-01 05:51:00,
2013-05-01 07:56:00,47.9,44.6,30.21,NE,45,0.4,2.5,88,0.00,,,0.00,WUHU216HW,2013-05-01 05:56:00,
2013-05-01 08:01:00,48.1,44.7,30.21,NNE,23,2.5,3.1,88,0.00,,,0.00,WUHU216HW,2013-05-01 06:01:00,
2013-05-01 08:06:00,48.1,44.7,30.21,NE,45,1.8,3.1,88,0.00,,,0.00,WUHU216HW,2013-05-01 06:06:00,
2013-05-01 08:11:00,48.1,44.7,30.22,SE,135,0.4,2.5,88,0.00,,,0.00,WUHU216HW,2013-05-01 06:11:00,
2013-05-01 08:16:00,48.2,44.9,30.22,NE,45,3.4,4.0,88,0.00,,,0.00,WUHU216HW,2013-05-01 06:16:00,
2013-05-01 08:21:00,48.1,44.7,30.22,ENE,68,1.1,4.0,88,0.00,,,0.00,WUHU216HW,2013-05-01 06:21:00,
2013-05-01 08:26:00,48.2,44.9,30.22,East,90,2.5,4.0,88,0.00,,,0.00,WUHU216HW,2013-05-01 06:26:00,
2013-05-01 08:31:00,48.2,44.9,30.22,ESE,113,1.3,4.5,88,0.00,,,0.00,WUHU216HW,2013-05-01 06:31:00,
2013-05-01 08:36:00,48.4,45.1,30.22,NE,45,0.7,4.5,88,0.00,,,0.00,WUHU216HW,2013-05-01 06:36:00,
2013-05-01 08:42:00,48.6,45.2,30.22,SE,135,1.8,3.4,88,0.00,,,0.00,WUHU216HW,2013-05-01 06:42:00,
2013-05-01 08:47:00,48.6,44.9,30.22,East,90,1.1,3.4,87,0.00,,,0.00,WUHU216HW,2013-05-01 06:47:00,
2013-05-01 08:52:00,48.8,45.1,30.21,NNE,23,1.8,3.6,87,0.00,,,0.00,WUHU216HW,2013-05-01 06:52:00,
2013-05-01 08:56:00,49.0,44.9,30.21,ENE,68,1.6,4.9,86,0.00,,,0.00,WUHU216HW,2013-05-01 06:56:00,
2013-05-01 09:01:00,49.1,45.1,30.21,ESE,113,2.5,4.9,86,0.00,,,0.00,WUHU216HW,2013-05-01 07:01:00,
2013-05-01 09:06:00,49.3,45.3,30.22,East,90,1.3,3.4,86,0.00,,,0.00,WUHU216HW,2013-05-01 07:06:00,
2013-05-01 09:12:00,49.3,45.3,30.22,East,90,2.0,3.4,86,0.00,,,0.00,WUHU216HW,2013-05-01 07:12:00,
2013-05-01 09:17:00,49.5,45.1,30.22,NE,45,2.0,3.8,85,0.00,,,0.00,WUHU216HW,2013-05-01 07:17:00,
2013-05-01 09:22:00,49.3,44.9,30.22,ESE,113,1.1,4.0,85,0.00,,,0.00,WUHU216HW,2013-05-01 07:22:00,
2013-05-01 09:27:00,49.3,44.9,30.22,ESE,113,1.6,5.6,85,0.00,,,0.00,WUHU216HW,2013-05-01 07:27:00,
2013-05-01 09:32:00,49.3,44.9,30.22,East,90,2.2,6.5,85,0.00,,,0.00,WUHU216HW,2013-05-01 07:32:00,
2013-05-01 09:37:00,49.3,44.9,30.22,ESE,113,2.7,6.5,85,0.00,,,0.00,WUHU216HW,2013-05-01 07:37:00,
2013-05-01 09:42:00,49.3,44.9,30.22,ESE,113,2.7,4.9,85,0.00,,,0.00,WUHU216HW,2013-05-01 07:42:00,
2013-05-01 09:47:00,49.3,44.9,30.22,NNE,23,2.2,4.9,85,0.00,,,0.00,WUHU216HW,2013-05-01 07:47:00,
2013-05-01 09:52:00,49.3,44.9,30.22,ENE,68,2.5,4.7,85,0.00,,,0.00,WUHU216HW,2013-05-01 07:52:00,
2013-05-01 09:57:00,49.5,45.1,30.22,East,90,3.4,4.7,85,0.00,,,0.00,WUHU216HW,2013-05-01 07:57:00,
2013-05-01 10:02:00,49.7,45.6,30.22,ENE,68,3.8,4.3,86,0.00,,,0.00,WUHU216HW,2013-05-01 08:02:00,
2013-05-01 10:07:00,49.7,45.6,30.22,ENE,68,3.6,4.3,86,0.00,,,0.00,WUHU216HW,2013-05-01 08:07:00,
2013-05-01 10:12:00,49.9,45.8,30.22,North,0,1.8,4.3,86,0.00,,,0.00,WUHU216HW,2013-05-01 08:12:00,
2013-05-01 10:17:00,50.0,45.6,30.22,NE,45,4.0,4.7,85,0.00,,,0.00,WUHU216HW,2013-05-01 08:17:00,
2013-05-01 10:22:00,50.0,45.4,30.22,NNE,23,1.8,4.7,84,0.00,,,0.00,WUHU216HW,2013-05-01 08:22:00,
2013-05-01 10:27:00,50.0,45.4,30.22,NE,45,2.5,4.0,84,0.00,,,0.00,WUHU216HW,2013-05-01 08:27:00,
2013-05-01 10:32:00,50.0,45.4,30.22,NE,45,2.0,4.7,84,0.00,,,0.00,WUHU216HW,2013-05-01 08:32:00,
2013-05-01 10:37:00,50.0,45.4,30.23,NNE,23,1.3,4.7,84,0.00,,,0.00,WUHU216HW,2013-05-01 08:37:00,
2013-05-01 10:42:00,50.0,45.0,30.23,NE,45,2.5,4.3,83,0.00,,,0.00,WUHU216HW,2013-05-01 08:42:00,
2013-05-01 10:47:00,50.0,45.4,30.22,ENE,68,2.5,4.3,84,0.00,,,0.00,WUHU216HW,2013-05-01 08:47:00,
2013-05-01 10:52:00,50.2,45.6,30.23,NE,45,0.7,4.7,84,0.00,,,0.00,WUHU216HW,2013-05-01 08:52:00,
2013-05-01 10:57:00,50.2,45.6,30.22,NNE,23,2.2,4.7,84,0.00,,,0.00,WUHU216HW,2013-05-01 08:57:00,
2013-05-01 11:02:00,50.6,45.5,30.23,NE,45,2.0,4.7,83,0.00,,,0.00,WUHU216HW,2013-05-01 09:02:00,
2013-05-01 11:07:00,50.6,45.5,30.22,NNE,23,2.2,4.7,83,0.00,,,0.00,WUHU216HW,2013-05-01 09:07:00,
2013-05-01 11:12:00,50.4,45.4,30.23,NE,45,2.0,4.7,83,0.00,,,0.00,WUHU216HW,2013-05-01 09:12:00,
2013-05-01 11:17:00,50.4,45.4,30.22,NNE,23,2.7,5.4,83,0.00,,,0.00,WUHU216HW,2013-05-01 09:17:00,
2013-05-01 11:22:00,50.6,45.5,30.22,NNE,23,3.1,5.4,83,0.00,,,0.00,WUHU216HW,2013-05-01 09:22:00,
2013-05-01 11:27:00,50.8,45.7,30.22,ENE,68,1.8,5.6,83,0.00,,,0.00,WUHU216HW,2013-05-01 09:27:00,
2013-05-01 11:32:00,50.8,45.7,30.22,NNE,23,2.2,5.6,83,0.00,,,0.00,WUHU216HW,2013-05-01 09:32:00,
2013-05-01 11:37:00,50.8,45.7,30.22,NNE,23,3.1,5.6,83,0.00,,,0.00,WUHU216HW,2013-05-01 09:37:00,
2013-05-01 11:42:00,50.8,45.7,30.22,NNE,23,4.9,6.0,83,0.00,,,0.00,WUHU216HW,2013-05-01 09:42:00,
2013-05-01 11:47:00,50.8,45.7,30.22,NNE,23,3.8,6.0,83,0.00,,,0.00,WUHU216HW,2013-05-01 09:47:00,
2013-05-01 11:52:00,50.9,45.9,30.22,NNE,23,3.1,5.8,83,0.00,,,0.00,WUHU216HW,2013-05-01 09:52:00,
2013-05-01 11:57:00,51.1,46.1,30.22,NNE,23,3.1,5.6,83,0.00,,,0.00,WUHU216HW,2013-05-01 09:57:00,
2013-05-01 12:02:00,51.3,46.0,30.22,NE,45,3.8,5.8,82,0.00,,,0.00,WUHU216HW,2013-05-01 10:02:00,
2013-05-01 12:07:00,51.3,46.3,30.22,NNE,23,4.0,6.9,83,0.00,,,0.00,WUHU216HW,2013-05-01 10:07:00,
2013-05-01 12:12:00,51.3,46.0,30.22,NE,45,4.3,6.9,82,0.00,,,0.00,WUHU216HW,2013-05-01 10:12:00,
2013-05-01 12:17:00,51.5,46.2,30.22,NE,45,3.8,6.7,82,0.00,,,0.00,WUHU216HW,2013-05-01 10:17:00,
2013-05-01 12:22:00,51.5,46.2,30.22,North,0,2.7,6.7,82,0.00,,,0.00,WUHU216HW,2013-05-01 10:22:00,
2013-05-01 12:27:00,51.8,46.5,30.21,NNE,23,3.6,4.7,82,0.00,,,0.00,WUHU216HW,2013-05-01 10:27:00,
2013-05-01 12:33:00,51.8,46.5,30.21,ESE,113,4.9,4.9,82,0.00,,,0.00,WUHU216HW,2013-05-01 10:33:00,
2013-05-01 12:38:00,52.0,46.7,30.21,NNE,23,2.5,5.4,82,0.00,,,0.00,WUHU216HW,2013-05-01 10:38:00,
2013-05-01 12:42:00,52.2,46.9,30.21,NE,45,5.6,6.9,82,0.00,,,0.00,WUHU216HW,2013-05-01 10:42:00,
2013-05-01 12:48:00,52.4,46.7,30.21,North,0,3.6,6.9,81,0.00,,,0.00,WUHU216HW,2013-05-01 10:48:00,
2013-05-01 12:53:00,52.4,47.1,30.20,NE,45,5.4,6.0,82,0.00,,,0.00,WUHU216HW,2013-05-01 10:53:00,
2013-05-01 12:58:00,52.6,46.9,30.20,East,90,3.1,6.0,81,0.00,,,0.00,WUHU216HW,2013-05-01 10:58:00,
2013-05-01 13:03:00,52.7,47.4,30.20,NNE,23,4.0,8.1,82,0.00,,,0.00,WUHU216HW,2013-05-01 11:03:00,
2013-05-01 13:08:00,52.9,47.3,30.20,NNE,23,4.3,8.1,81,0.00,,,0.00,WUHU216HW,2013-05-01 11:08:00,
2013-05-01 13:13:00,53.1,47.8,30.20,NE,45,5.8,7.6,82,0.00,,,0.00,WUHU216HW,2013-05-01 11:13:00,
2013-05-01 13:18:00,53.3,47.3,30.20,NNE,23,2.5,5.8,80,0.00,,,0.00,WUHU216HW,2013-05-01 11:18:00,
2013-05-01 13:23:00,53.6,47.7,30.20,NNE,23,3.6,6.9,80,0.00,,,0.00,WUHU216HW,2013-05-01 11:23:00,
2013-05-01 13:28:00,53.5,47.5,30.20,NNE,23,2.5,6.9,80,0.00,,,0.00,WUHU216HW,2013-05-01 11:28:00,
2013-05-01 13:33:00,53.5,47.5,30.20,NE,45,4.7,5.6,80,0.00,,,0.00,WUHU216HW,2013-05-01 11:33:00,
2013-05-01 13:38:00,53.3,47.3,30.20,NNE,23,5.4,5.6,80,0.00,,,0.00,WUHU216HW,2013-05-01 11:38:00,
2013-05-01 13:43:00,53.6,48.0,30.20,NE,45,2.2,5.4,81,0.00,,,0.00,WUHU216HW,2013-05-01 11:43:00,
2013-05-01 13:48:00,53.6,47.7,30.20,NNE,23,1.8,7.4,80,0.00,,,0.00,WUHU216HW,2013-05-01 11:48:00,
2013-05-01 13:53:00,53.8,47.9,30.19,NNE,23,4.7,7.4,80,0.00,,,0.00,WUHU216HW,2013-05-01 11:53:00,
2013-05-01 13:58:00,54.0,48.1,30.20,NE,45,3.4,5.6,80,0.00,,,0.00,WUHU216HW,2013-05-01 11:58:00,
2013-05-01 14:03:00,54.0,48.1,30.19,North,0,4.7,5.6,80,0.00,,,0.00,WUHU216HW,2013-05-01 12:03:00,
2013-05-01 14:08:00,54.0,47.7,30.19,NNE,23,3.1,5.1,79,0.00,,,0.00,WUHU216HW,2013-05-01 12:08:00,
2013-05-01 14:13:00,54.2,48.2,30.19,East,90,2.0,5.1,80,0.00,,,0.00,WUHU216HW,2013-05-01 12:13:00,
2013-05-01 14:18:00,54.4,48.3,30.19,NNE,23,2.9,4.5,80,0.00,,,0.00,WUHU216HW,2013-05-01 12:18:00,
2013-05-01 14:23:00,54.4,47.6,30.19,NNE,23,2.5,4.9,78,0.00,,,0.00,WUHU216HW,2013-05-01 12:23:00,
2013-05-01 14:28:00,54.4,48.3,30.19,East,90,4.7,4.9,80,0.00,,,0.00,WUHU216HW,2013-05-01 12:28:00,
2013-05-01 14:33:00,54.4,48.3,30.19,ENE,68,3.4,4.7,80,0.00,,,0.00,WUHU216HW,2013-05-01 12:33:00,
2013-05-01 14:38:00,54.4,48.3,30.18,NE,45,3.8,4.7,80,0.00,,,0.00,WUHU216HW,2013-05-01 12:38:00,
2013-05-01 14:43:00,54.5,48.5,30.18,NNE,23,4.0,5.4,80,0.00,,,0.00,WUHU216HW,2013-05-01 12:43:00,
2013-05-01 14:48:00,54.5,48.2,30.18,NNE,23,2.5,5.4,79,0.00,,,0.00,WUHU216HW,2013-05-01 12:48:00,
2013-05-01 14:53:00,54.4,48.3,30.17,NNE,23,3.4,4.5,80,0.00,,,0.00,WUHU216HW,2013-05-01 12:53:00,
2013-05-01 14:58:00,54.4,48.3,30.17,NNE,23,4.9,8.3,80,0.00,,,0.00,WUHU216HW,2013-05-01 12:58:00,
2013-05-01 15:03:00,54.4,48.3,30.17,NNE,23,5.4,8.3,80,0.00,,,0.00,WUHU216HW,2013-05-01 13:03:00,
2013-05-01 15:08:00,54.4,48.3,30.17,NNE,23,2.7,6.0,80,0.00,,,0.00,WUHU216HW,2013-05-01 13:08:00,
2013-05-01 15:13:00,54.4,48.3,30.17,ENE,68,2.5,6.0,80,0.00,,,0.00,WUHU216HW,2013-05-01 13:13:00,
2013-05-01 15:18:00,54.5,48.5,30.17,ENE,68,1.8,7.2,80,0.00,,,0.00,WUHU216HW,2013-05-01 13:18:00,
2013-05-01 15:23:00,54.5,48.5,30.17,North,0,6.3,7.4,80,0.00,,,0.00,WUHU216HW,2013-05-01 13:23:00,
2013-05-01 15:28:00,54.9,48.9,30.16,North,0,2.9,7.4,80,0.00,,,0.00,WUHU216HW,2013-05-01 13:28:00,
2013-05-01 15:33:00,54.7,48.7,30.16,North,0,3.1,6.3,80,0.00,,,0.00,WUHU216HW,2013-05-01 13:33:00,
2013-05-01 15:38:00,54.9,48.9,30.16,NE,45,4.0,6.9,80,0.00,,,0.00,WUHU216HW,2013-05-01 13:38:00,
2013-05-01 15:43:00,55.1,49.0,30.16,NE,45,5.4,6.9,80,0.00,,,0.00,WUHU216HW,2013-05-01 13:43:00,
2013-05-01 15:48:00,55.1,48.7,30.16,NE,45,2.5,6.3,79,0.00,,,0.00,WUHU216HW,2013-05-01 13:48:00,
2013-05-01 15:53:00,55.1,49.0,30.16,NE,45,4.3,6.3,80,0.01,,,0.01,WUHU216HW,2013-05-01 13:53:00,
2013-05-01 15:58:00,55.3,48.8,30.15,NE,45,4.7,6.9,79,0.01,,,0.01,WUHU216HW,2013-05-01 13:58:00,
2013-05-01 16:03:00,55.3,48.8,30.16,NE,45,2.5,6.9,79,0.01,,,0.01,WUHU216HW,2013-05-01 14:03:00,
2013-05-01 16:08:00,55.3,48.8,30.15,NNE,23,4.7,6.5,79,0.01,,,0.01,WUHU216HW,2013-05-01 14:08:00,
2013-05-01 16:13:00,55.3,48.8,30.15,NNE,23,4.0,7.2,79,0.01,,,0.01,WUHU216HW,2013-05-01 14:13:00,
2013-05-01 16:18:00,55.4,49.0,30.15,ENE,68,5.4,7.2,79,0.01,,,0.01,WUHU216HW,2013-05-01 14:18:00,
2013-05-01 16:23:00,55.3,48.8,30.15,NE,45,3.4,6.3,79,0.01,,,0.01,WUHU216HW,2013-05-01 14:23:00,
2013-05-01 16:28:00,55.3,48.8,30.15,NE,45,1.6,5.4,79,0.01,,,0.01,WUHU216HW,2013-05-01 14:28:00,
2013-05-01 16:33:00,55.3,48.8,30.15,ENE,68,2.2,4.5,79,0.01,,,0.01,WUHU216HW,2013-05-01 14:33:00,
2013-05-01 16:38:00,55.1,49.0,30.15,NE,45,4.7,5.1,80,0.01,,,0.01,WUHU216HW,2013-05-01 14:38:00,
2013-05-01 16:43:00,55.1,48.7,30.15,North,0,4.0,6.3,79,0.01,,,0.01,WUHU216HW,2013-05-01 14:43:00,
2013-05-01 16:48:00,55.1,49.0,30.14,North,0,1.1,6.3,80,0.00,,,0.01,WUHU216HW,2013-05-01 14:48:00,
2013-05-01 16:53:00,55.3,49.1,30.14,NNE,23,2.9,5.4,80,0.00,,,0.01,WUHU216HW,2013-05-01 14:53:00,
2013-05-01 16:58:00,55.4,49.0,30.14,NE,45,1.8,5.4,79,0.00,,,0.01,WUHU216HW,2013-05-01 14:58:00,
2013-05-01 17:03:00,55.4,49.0,30.14,NE,45,1.8,5.1,79,0.00,,,0.01,WUHU216HW,2013-05-01 15:03:00,
2013-05-01 17:08:00,55.4,49.0,30.14,NNE,23,1.6,5.1,79,0.00,,,0.01,WUHU216HW,2013-05-01 15:08:00,
2013-05-01 17:13:00,55.4,49.3,30.13,NE,45,2.5,3.4,80,0.00,,,0.01,WUHU216HW,2013-05-01 15:13:00,
2013-05-01 17:18:00,55.6,49.9,30.13,NNE,23,1.8,4.9,81,0.00,,,0.01,WUHU216HW,2013-05-01 15:18:00,
2013-05-01 17:23:00,55.8,50.1,30.13,North,0,3.4,5.6,81,0.00,,,0.01,WUHU216HW,2013-05-01 15:23:00,
2013-05-01 17:28:00,55.8,49.3,30.13,NNE,23,2.2,5.6,79,0.00,,,0.01,WUHU216HW,2013-05-01 15:28:00,
2013-05-01 17:33:00,55.8,49.7,30.13,NE,45,4.7,5.6,80,0.00,,,0.01,WUHU216HW,2013-05-01 15:33:00,
2013-05-01 17:38:00,56.0,49.9,30.13,NE,45,3.1,6.3,80,0.00,,,0.01,WUHU216HW,2013-05-01 15:38:00,
2013-05-01 17:43:00,56.2,49.7,30.13,NNE,23,4.7,6.3,79,0.00,,,0.01,WUHU216HW,2013-05-01 15:43:00,
2013-05-01 17:48:00,56.0,49.5,30.13,NNE,23,2.2,5.6,79,0.00,,,0.01,WUHU216HW,2013-05-01 15:48:00,
2013-05-01 17:53:00,56.0,49.5,30.13,NE,45,4.3,5.6,79,0.00,,,0.01,WUHU216HW,2013-05-01 15:53:00,
2013-05-01 17:58:00,56.2,49.7,30.12,NE,45,2.7,5.4,79,0.00,,,0.01,WUHU216HW,2013-05-01 15:58:00,
2013-05-01 18:03:00,56.2,49.7,30.12,NNE,23,4.7,5.4,79,0.00,,,0.01,WUHU216HW,2013-05-01 16:03:00,
2013-05-01 18:08:00,56.2,49.7,30.12,ENE,68,3.8,5.8,79,0.00,,,0.01,WUHU216HW,2013-05-01 16:08:00,
2013-05-01 18:13:00,56.2,49.7,30.12,NNE,23,2.9,5.8,79,0.00,,,0.01,WUHU216HW,2013-05-01 16:13:00,
2013-05-01 18:18:00,56.2,49.7,30.12,North,0,3.1,5.8,79,0.00,,,0.01,WUHU216HW,2013-05-01 16:18:00,
2013-05-01 18:23:00,56.2,49.3,30.12,NNE,23,3.4,5.8,78,0.00,,,0.01,WUHU216HW,2013-05-01 16:23:00,
2013-05-01 18:28:00,56.0,49.5,30.12,ESE,113,3.8,4.9,79,0.00,,,0.01,WUHU216HW,2013-05-01 16:28:00,
2013-05-01 18:33:00,56.0,49.5,30.11,NNE,23,3.4,4.9,79,0.00,,,0.01,WUHU216HW,2013-05-01 16:33:00,
2013-05-01 18:38:00,56.0,49.5,30.12,NE,45,4.0,6.5,79,0.00,,,0.01,WUHU216HW,2013-05-01 16:38:00,
2013-05-01 18:43:00,55.8,49.3,30.12,NNE,23,3.4,7.2,79,0.00,,,0.01,WUHU216HW,2013-05-01 16:43:00,
2013-05-01 18:48:00,55.8,49.3,30.12,NE,45,3.4,7.2,79,0.00,,,0.01,WUHU216HW,2013-05-01 16:48:00,
2013-05-01 18:53:00,55.8,49.7,30.12,ENE,68,1.8,4.7,80,0.00,,,0.01,WUHU216HW,2013-05-01 16:53:00,
2013-05-01 18:58:00,55.8,49.7,30.12,NE,45,2.2,4.3,80,0.00,,,0.01,WUHU216HW,2013-05-01 16:58:00,
2013-05-01 19:03:00,56.0,49.9,30.11,NE,45,3.6,4.3,80,0.00,,,0.01,WUHU216HW,2013-05-01 17:03:00,
2013-05-01 19:08:00,55.8,49.7,30.11,NE,45,4.3,4.3,80,0.00,,,0.01,WUHU216HW,2013-05-01 17:08:00,
2013-05-01 19:13:00,55.8,49.7,30.11,NE,45,4.0,5.1,80,0.00,,,0.01,WUHU216HW,2013-05-01 17:13:00,
2013-05-01 19:18:00,55.8,49.7,30.11,NE,45,2.5,5.1,80,0.00,,,0.01,WUHU216HW,2013-05-01 17:18:00,
2013-05-01 19:23:00,55.8,49.7,30.11,NE,45,1.3,4.0,80,0.00,,,0.01,WUHU216HW,2013-05-01 17:23:00,
2013-05-01 19:28:00,55.8,49.7,30.11,North,0,2.5,3.4,80,0.00,,,0.01,WUHU216HW,2013-05-01 17:28:00,
2013-05-01 19:33:00,55.6,49.5,30.11,ESE,113,1.8,3.6,80,0.00,,,0.01,WUHU216HW,2013-05-01 17:33:00,
2013-05-01 19:38:00,55.4,49.0,30.11,ESE,113,0.7,3.6,79,0.00,,,0.01,WUHU216HW,2013-05-01 17:38:00,
2013-05-01 19:43:00,55.4,49.3,30.11,East,90,1.1,2.7,80,0.00,,,0.01,WUHU216HW,2013-05-01 17:43:00,
2013-05-01 19:48:00,55.3,49.1,30.11,ESE,113,0.4,2.2,80,0.00,,,0.01,WUHU216HW,2013-05-01 17:48:00,
2013-05-01 19:53:00,55.3,49.1,30.11,ESE,113,2.7,2.9,80,0.00,,,0.01,WUHU216HW,2013-05-01 17:53:00,
2013-05-01 19:58:00,55.1,49.0,30.11,SE,135,1.6,2.9,80,0.00,,,0.01,WUHU216HW,2013-05-01 17:58:00,
2013-05-01 20:03:00,55.1,49.0,30.11,ESE,113,0.7,2.7,80,0.00,,,0.01,WUHU216HW,2013-05-01 18:03:00,
2013-05-01 20:09:00,54.9,48.9,30.11,SSE,158,0.7,1.8,80,0.00,,,0.01,WUHU216HW,2013-05-01 18:09:00,
2013-05-01 20:14:00,54.7,48.7,30.11,SE,135,1.6,1.8,80,0.00,,,0.01,WUHU216HW,2013-05-01 18:14:00,
2013-05-01 20:19:00,54.5,48.5,30.11,SE,135,0.2,1.6,80,0.00,,,0.01,WUHU216HW,2013-05-01 18:19:00,
2013-05-01 20:24:00,54.4,48.3,30.11,SSE,158,0.4,1.6,80,0.00,,,0.01,WUHU216HW,2013-05-01 18:24:00,
2013-05-01 20:29:00,54.2,48.2,30.12,ESE,113,0.9,1.3,80,0.00,,,0.01,WUHU216HW,2013-05-01 18:29:00,
2013-05-01 20:34:00,54.0,48.1,30.12,ESE,113,0.9,1.8,80,0.00,,,0.01,WUHU216HW,2013-05-01 18:34:00,
2013-05-01 20:39:00,53.6,48.0,30.12,SE,135,1.3,4.0,81,0.00,,,0.01,WUHU216HW,2013-05-01 18:39:00,
2013-05-01 20:44:00,53.6,48.0,30.12,East,90,2.7,4.0,81,0.00,,,0.01,WUHU216HW,2013-05-01 18:44:00,
2013-05-01 20:49:00,53.5,48.2,30.12,East,90,2.2,3.8,82,0.00,,,0.01,WUHU216HW,2013-05-01 18:49:00,
2013-05-01 20:54:00,53.3,48.0,30.12,East,90,1.8,4.0,82,0.00,,,0.01,WUHU216HW,2013-05-01 18:54:00,
2013-05-01 20:59:00,53.3,48.0,30.12,ESE,113,2.5,4.0,82,0.00,,,0.01,WUHU216HW,2013-05-01 18:59:00,
2013-05-01 21:04:00,53.3,48.0,30.12,ENE,68,1.6,3.1,82,0.00,,,0.01,WUHU216HW,2013-05-01 19:04:00,
2013-05-01 21:09:00,53.3,48.0,30.12,SE,135,2.5,3.6,82,0.00,,,0.01,WUHU216HW,2013-05-01 19:09:00,
2013-05-01 21:13:00,53.1,47.8,30.11,ENE,68,1.1,3.6,82,0.00,,,0.01,WUHU216HW,2013-05-01 19:13:00,
2013-05-01 21:18:00,52.9,47.6,30.12,ESE,113,0.7,3.4,82,0.00,,,0.01,WUHU216HW,2013-05-01 19:18:00,
2013-05-01 21:23:00,52.9,47.6,30.12,ENE,68,0.7,2.5,82,0.00,,,0.01,WUHU216HW,2013-05-01 19:23:00,
2013-05-01 21:28:00,52.9,47.6,30.11,East,90,1.1,2.0,82,0.00,,,0.01,WUHU216HW,2013-05-01 19:28:00,
2013-05-01 21:33:00,52.7,47.4,30.11,ESE,113,1.3,1.8,82,0.00,,,0.01,WUHU216HW,2013-05-01 19:33:00,
2013-05-01 21:38:00,52.6,47.3,30.11,ESE,113,1.8,2.2,82,0.00,,,0.01,WUHU216HW,2013-05-01 19:38:00,
2013-05-01 21:43:00,52.4,47.1,30.11,East,90,1.8,2.5,82,0.00,,,0.01,WUHU216HW,2013-05-01 19:43:00,
2013-05-01 21:48:00,52.2,46.9,30.11,ESE,113,0.9,2.5,82,0.00,,,0.01,WUHU216HW,2013-05-01 19:48:00,
2013-05-01 21:53:00,52.2,46.9,30.11,ESE,113,1.1,1.8,82,0.00,,,0.01,WUHU216HW,2013-05-01 19:53:00,
2013-05-01 21:58:00,52.0,46.7,30.11,ESE,113,1.6,2.5,82,0.00,,,0.01,WUHU216HW,2013-05-01 19:58:00,
2013-05-01 22:03:00,51.8,46.5,30.10,ESE,113,0.7,2.5,82,0.00,,,0.01,WUHU216HW,2013-05-01 20:03:00,
2013-05-01 22:08:00,51.8,46.8,30.10,SE,135,0.4,2.5,83,0.00,,,0.01,WUHU216HW,2013-05-01 20:08:00,
2013-05-01 22:14:00,51.8,46.8,30.11,ESE,113,0.4,1.8,83,0.00,,,0.01,WUHU216HW,2013-05-01 20:14:00,
2013-05-01 22:18:00,51.7,46.6,30.11,East,90,0.0,0.9,83,0.00,,,0.01,WUHU216HW,2013-05-01 20:18:00,
2013-05-01 22:24:00,51.5,46.4,30.11,East,90,0.7,1.1,83,0.00,,,0.01,WUHU216HW,2013-05-01 20:24:00,
2013-05-01 22:29:00,51.5,46.4,30.10,ESE,113,1.1,1.1,83,0.00,,,0.01,WUHU216HW,2013-05-01 20:29:00,
2013-05-01 22:34:00,51.5,46.4,30.10,ESE,113,0.4,1.8,83,0.00,,,0.01,WUHU216HW,2013-05-01 20:34:00,
2013-05-01 22:39:00,51.5,46.4,30.10,ESE,113,0.7,2.2,83,0.00,,,0.01,WUHU216HW,2013-05-01 20:39:00,
2013-05-01 22:44:00,51.5,46.8,30.10,NE,45,0.0,2.2,84,0.00,,,0.01,WUHU216HW,2013-05-01 20:44:00,
2013-05-01 22:48:00,51.3,46.6,30.09,ESE,113,0.9,1.1,84,0.00,,,0.01,WUHU216HW,2013-05-01 20:48:00,
2013-05-01 22:54:00,51.1,46.5,30.09,ESE,113,0.2,1.8,84,0.00,,,0.01,WUHU216HW,2013-05-01 20:54:00,
2013-05-01 22:59:00,51.1,46.5,30.09,NE,45,0.4,1.8,84,0.00,,,0.01,WUHU216HW,2013-05-01 20:59:00,
2013-05-01 23:04:00,51.1,46.5,30.09,NE,45,0.7,2.5,84,0.00,,,0.01,WUHU216HW,2013-05-01 21:04:00,
2013-05-01 23:08:00,51.1,46.5,30.09,SE,135,1.6,2.5,84,0.00,,,0.01,WUHU216HW,2013-05-01 21:08:00,
2013-05-01 23:13:00,50.9,46.3,30.09,ENE,68,0.4,1.6,84,0.00,,,0.01,WUHU216HW,2013-05-01 21:13:00,
2013-05-01 23:18:00,50.9,46.3,30.09,SSE,158,0.0,1.6,84,0.00,,,0.01,WUHU216HW,2013-05-01 21:18:00,
2013-05-01 23:23:00,50.9,46.5,30.10,North,0,0.0,1.3,85,0.00,,,0.01,WUHU216HW,2013-05-01 21:23:00,
2013-05-01 23:28:00,50.9,46.5,30.11,WNW,293,1.1,1.6,85,0.00,,,0.01,WUHU216HW,2013-05-01 21:28:00,
2013-05-01 23:33:00,50.8,46.4,30.14,WNW,293,4.3,4.3,85,0.00,,,0.01,WUHU216HW,2013-05-01 21:33:00,
2013-05-01 23:38:00,50.8,46.4,30.15,WNW,293,2.5,4.9,85,0.00,,,0.01,WUHU216HW,2013-05-01 21:38:00,
2013-05-01 23:43:00,50.8,46.6,30.14,ESE,113,0.7,4.9,86,0.00,,,0.01,WUHU216HW,2013-05-01 21:43:00,
2013-05-01 23:48:00,50.8,46.6,30.14,SE,135,1.8,3.1,86,0.00,,,0.01,WUHU216HW,2013-05-01 21:48:00,
2013-05-01 23:53:00,50.8,46.6,30.12,ENE,68,1.6,3.4,86,0.03,,,0.04,WUHU216HW,2013-05-01 21:53:00,
2013-05-01 23:58:00,50.8,46.6,30.13,SW,225,1.1,3.4,86,0.07,,,0.08,WUHU216HW,2013-05-01 21:58:00,